| time (UTC) | temp C | wind direction | speed KPH | gust KPH | rain 1hr cm | rain 24hr cm | rain mn cm | humidity % | barometer mb |
| 20260906145450 | 22 | 209 | 0.0 | 0.0 | 0.00 | 0.00 | 0.00 | 82 | 1019.7 |
| 20260906144949 | 22 | 157 | 0.0 | 0.0 | 0.00 | 0.00 | 0.00 | 83 | 1019.8 |
| 20260906144445 | 22 | 214 | 0.0 | 0.0 | 0.00 | 0.00 | 0.00 | 83 | 1019.7 |
| 20260906143940 | 22 | 339 | 0.0 | 0.0 | 0.00 | 0.00 | 0.00 | 83 | 1019.5 |
| 20260906143435 | 22 | 170 | 0.0 | 0.0 | 0.00 | 0.00 | 0.00 | 84 | 1019.6 |
| 20260906142931 | 22 | 193 | 0.0 | 0.0 | 0.00 | 0.00 | 0.00 | 85 | 1019.7 |
| 20260906142431 | 22 | 204 | 0.0 | 0.0 | 0.00 | 0.00 | 0.00 | 83 | 1019.6 |
| 20260906141926 | 22 | 201 | 0.0 | 0.0 | 0.00 | 0.00 | 0.00 | 84 | 1019.7 |
| 20260906141420 | 22 | 163 | 0.0 | 0.0 | 0.00 | 0.00 | 0.00 | 86 | 1019.5 |
| 20260906140920 | 22 | 186 | 0.0 | 0.0 | 0.00 | 0.00 | 0.00 | 86 | 1019.7 |
| 20260906140414 | 22 | 204 | 0.0 | 0.0 | 0.00 | 0.00 | 0.00 | 85 | 1019.8 |
| 20260906135913 | 21 | 210 | 0.0 | 0.0 | 0.00 | 0.00 | 0.00 | 88 | 1019.7 |
| 20260906135406 | 21 | 176 | 0.0 | 0.0 | 0.00 | 0.00 | 0.00 | 86 | 1019.9 |
| 20260906134902 | 20 | 196 | 0.0 | 0.0 | 0.00 | 0.00 | 0.00 | 89 | 1019.7 |
| 20260906134357 | 20 | 220 | 0.0 | 0.0 | 0.00 | 0.00 | 0.00 | 88 | 1019.6 |
| 20260906133852 | 20 | 199 | 0.0 | 0.0 | 0.00 | 0.00 | 0.00 | 89 | 1019.6 |
| 20260906133348 | 19 | 193 | 0.0 | 0.0 | 0.00 | 0.00 | 0.00 | 92 | 1019.8 |
| 20260906132843 | 19 | 266 | 0.0 | 0.0 | 0.00 | 0.00 | 0.00 | 93 | 1019.7 |
| 20260906132338 | 19 | 250 | 0.0 | 0.0 | 0.00 | 0.00 | 0.00 | 93 | 1019.5 |
| 20260906131834 | 18 | 228 | 0.0 | 0.0 | 0.00 | 0.00 | 0.00 | 93 | 1019.6 |
| 20260906131329 | 18 | 220 | 0.0 | 0.0 | 0.00 | 0.00 | 0.00 | 94 | 1019.9 |
| 20260906130825 | 18 | 236 | 0.0 | 0.0 | 0.00 | 0.00 | 0.00 | 94 | 1019.8 |
| 20260906130324 | 18 | 255 | 0.0 | 0.0 | 0.00 | 0.00 | 0.00 | 94 | 1019.6 |
| 20260906125824 | 17 | 181 | 0.0 | 0.0 | 0.00 | 0.00 | 0.00 | 95 | 1019.6 |
| 20260906125321 | 17 | 215 | 0.0 | 0.0 | 0.00 | 0.00 | 0.00 | 95 | 1019.6 |
| 20260906124816 | 17 | 236 | 0.0 | 0.0 | 0.00 | 0.00 | 0.00 | 95 | 1019.7 |
| 20260906124312 | 17 | 304 | 0.0 | 0.0 | 0.00 | 0.00 | 0.00 | 96 | 1019.7 |
| 20260906123810 | 17 | 247 | 0.0 | 0.0 | 0.00 | 0.00 | 0.00 | 97 | 1019.6 |
| 20260906123306 | 17 | 235 | 0.0 | 0.0 | 0.00 | 0.00 | 0.00 | 98 | 1019.6 |
| 20260906122806 | 16 | 234 | 0.0 | 0.0 | 0.00 | 0.00 | 0.00 | 99 | 1019.4 |
| 20260906122301 | 16 | 231 | 0.0 | 0.0 | 0.00 | 0.00 | 0.00 | 99 | 1019.6 |
| 20260906121757 | 16 | 230 | 0.0 | 0.0 | 0.00 | 0.00 | 0.00 | 99 | 1019.2 |
| 20260906121248 | 16 | 232 | 0.0 | 0.0 | 0.00 | 0.00 | 0.00 | 99 | 1018.9 |
| 20260906120743 | 16 | 274 | 0.0 | 0.0 | 0.00 | 0.00 | 0.00 | 99 | 1019.3 |
| 20260906120239 | 16 | 247 | 0.0 | 0.0 | 0.00 | 0.00 | 0.00 | 99 | 1019.2 |
| 20260906115735 | 16 | 243 | 0.0 | 0.0 | 0.00 | 0.00 | 0.00 | 99 | 1019.2 |
| 20260906115230 | 16 | 225 | 0.0 | 0.0 | 0.00 | 0.00 | 0.00 | 99 | 1019.2 |
| 20260906114728 | 16 | 254 | 0.0 | 0.0 | 0.00 | 0.00 | 0.00 | 99 | 1019.2 |
| 20260906114224 | 16 | 197 | 0.0 | 0.0 | 0.00 | 0.00 | 0.00 | 99 | 1019.1 |
| 20260906113719 | 16 | 238 | 0.0 | 0.0 | 0.00 | 0.00 | 0.00 | 99 | 1019.1 |
| 20260906113218 | 16 | 238 | 0.0 | 0.0 | 0.00 | 0.00 | 0.00 | 99 | 1019.2 |
| 20260906112713 | 16 | 243 | 0.0 | 0.0 | 0.00 | 0.00 | 0.00 | 99 | 1018.9 |
| 20260906112210 | 16 | 246 | 0.0 | 0.0 | 0.00 | 0.00 | 0.00 | 99 | 1018.9 |
| 20260906111709 | 16 | 227 | 0.0 | 0.0 | 0.00 | 0.00 | 0.00 | 99 | 1018.7 |
| 20260906111204 | 16 | 226 | 0.0 | 0.0 | 0.00 | 0.00 | 0.00 | 99 | 1018.4 |
| 20260906110658 | 16 | 228 | 0.0 | 0.0 | 0.00 | 0.00 | 0.00 | 99 | 1018.1 |
| 20260906110154 | 16 | 205 | 0.0 | 0.0 | 0.00 | 0.00 | 0.00 | 99 | 1018.0 |
| 20260906105648 | 16 | 205 | 0.0 | 0.0 | 0.00 | 0.00 | 0.00 | 99 | 1018.4 |
| 20260906105144 | 16 | 216 | 0.0 | 0.0 | 0.00 | 0.00 | 0.00 | 99 | 1018.0 |
| 20260906104643 | 16 | 240 | 0.0 | 0.0 | 0.00 | 0.00 | 0.00 | 99 | 1018.2 |
| 20260906104143 | 16 | 232 | 0.0 | 0.0 | 0.00 | 0.00 | 0.00 | 99 | 1018.0 |
| 20260906103641 | 16 | 224 | 0.0 | 0.0 | 0.00 | 0.00 | 0.00 | 99 | 1018.1 |
| 20260906103137 | 16 | 247 | 0.0 | 0.0 | 0.00 | 0.00 | 0.00 | 99 | 1018.2 |
| 20260906102632 | 16 | 225 | 0.0 | 0.0 | 0.00 | 0.00 | 0.00 | 99 | 1018.1 |
| 20260906102131 | 16 | 221 | 0.0 | 0.0 | 0.00 | 0.00 | 0.00 | 99 | 1018.2 |
| 20260906101631 | 16 | 223 | 0.0 | 0.0 | 0.00 | 0.00 | 0.00 | 99 | 1018.2 |
| 20260906101131 | 16 | 226 | 0.0 | 0.0 | 0.00 | 0.00 | 0.00 | 99 | 1018.3 |
| 20260906100627 | 17 | 224 | 0.0 | 0.0 | 0.00 | 0.00 | 0.00 | 99 | 1017.9 |
| 20260906100121 | 17 | 226 | 0.0 | 0.0 | 0.00 | 0.00 | 0.00 | 99 | 1018.2 |
| 20260906095616 | 17 | 233 | 0.0 | 0.0 | 0.00 | 0.00 | 0.00 | 99 | 1018.1 |
| 20260906095112 | 17 | 233 | 0.0 | 0.0 | 0.00 | 0.00 | 0.00 | 99 | 1018.1 |
| 20260906094610 | 17 | 233 | 0.0 | 0.0 | 0.00 | 0.00 | 0.00 | 99 | 1018.2 |
| 20260906094107 | 17 | 233 | 0.0 | 0.0 | 0.00 | 0.00 | 0.00 | 99 | 1018.3 |
| 20260906093603 | 17 | 234 | 0.0 | 0.0 | 0.00 | 0.00 | 0.00 | 99 | 1018.4 |
| 20260906093057 | 17 | 234 | 0.0 | 0.0 | 0.00 | 0.00 | 0.00 | 99 | 1018.4 |
| 20260906092552 | 17 | 234 | 0.0 | 0.0 | 0.00 | 0.00 | 0.00 | 99 | 1018.1 |
| 20260906092047 | 17 | 235 | 0.0 | 0.0 | 0.00 | 0.00 | 0.00 | 99 | 1018.0 |
| 20260906091542 | 17 | 235 | 0.0 | 0.0 | 0.00 | 0.00 | 0.00 | 99 | 1018.2 |
| 20260906091033 | 17 | 233 | 0.0 | 0.0 | 0.00 | 0.00 | 0.00 | 99 | 1018.1 |
| 20260906090528 | 17 | 234 | 0.0 | 0.0 | 0.00 | 0.00 | 0.00 | 99 | 1018.3 |
| 20260906090023 | 17 | 230 | 0.0 | 0.0 | 0.00 | 0.00 | 0.00 | 99 | 1018.2 |
| 20260906085522 | 17 | 229 | 0.0 | 0.0 | 0.00 | 0.00 | 0.00 | 99 | 1017.9 |
| 20260906085021 | 17 | 228 | 0.0 | 0.0 | 0.00 | 0.00 | 0.00 | 99 | 1017.8 |
| 20260906084516 | 17 | 215 | 0.0 | 0.0 | 0.00 | 0.00 | 0.00 | 99 | 1018.0 |
| 20260906084015 | 17 | 233 | 0.0 | 0.0 | 0.00 | 0.00 | 0.00 | 99 | 1018.3 |
| 20260906083511 | 17 | 247 | 0.0 | 0.0 | 0.00 | 0.00 | 0.00 | 99 | 1018.2 |
| 20260906083009 | 17 | 234 | 0.0 | 0.0 | 0.00 | 0.00 | 0.00 | 99 | 1018.3 |
| 20260906082505 | 17 | 233 | 0.0 | 0.0 | 0.00 | 0.00 | 0.00 | 99 | 1018.1 |
| 20260906082001 | 16 | 232 | 0.0 | 0.0 | 0.00 | 0.00 | 0.00 | 99 | 1018.0 |
| 20260906081456 | 17 | 232 | 0.0 | 0.0 | 0.00 | 0.00 | 0.00 | 99 | 1017.9 |
| 20260906080952 | 17 | 232 | 0.0 | 0.0 | 0.00 | 0.00 | 0.00 | 99 | 1017.9 |
| 20260906080449 | 17 | 232 | 0.0 | 0.0 | 0.00 | 0.00 | 0.00 | 99 | 1018.0 |
| 20260906075949 | 17 | 232 | 0.0 | 0.0 | 0.00 | 0.00 | 0.00 | 99 | 1018.0 |
| 20260906075444 | 17 | 232 | 0.0 | 0.0 | 0.00 | 0.00 | 0.00 | 99 | 1018.1 |
| 20260906074939 | 17 | 232 | 0.0 | 0.0 | 0.00 | 0.00 | 0.00 | 99 | 1018.0 |
| 20260906074438 | 17 | 232 | 0.0 | 0.0 | 0.00 | 0.00 | 0.00 | 99 | 1018.0 |
| 20260906073937 | 17 | 232 | 0.0 | 0.0 | 0.00 | 0.00 | 0.00 | 99 | 1017.9 |
| 20260906073432 | 17 | 232 | 0.0 | 0.0 | 0.00 | 0.00 | 0.00 | 99 | 1017.8 |
| 20260906072929 | 17 | 231 | 0.0 | 0.0 | 0.00 | 0.00 | 0.00 | 99 | 1018.0 |
| 20260906072424 | 17 | 231 | 0.0 | 0.0 | 0.00 | 0.00 | 0.00 | 99 | 1018.0 |
| 20260906071919 | 17 | 232 | 0.0 | 0.0 | 0.00 | 0.00 | 0.00 | 99 | 1018.1 |
| 20260906071415 | 18 | 227 | 0.0 | 0.0 | 0.00 | 0.00 | 0.00 | 99 | 1017.9 |
| 20260906070911 | 18 | 227 | 0.0 | 0.0 | 0.00 | 0.00 | 0.00 | 99 | 1018.0 |
| 20260906070407 | 18 | 227 | 0.0 | 0.0 | 0.00 | 0.00 | 0.00 | 99 | 1018.1 |
| 20260906065903 | 18 | 225 | 0.0 | 0.0 | 0.00 | 0.00 | 0.00 | 99 | 1018.0 |
| 20260906065356 | 18 | 221 | 0.0 | 0.0 | 0.00 | 0.00 | 0.00 | 99 | 1018.1 |
| 20260906064853 | 18 | 225 | 0.0 | 0.0 | 0.00 | 0.00 | 0.00 | 99 | 1018.2 |
| 20260906064348 | 18 | 219 | 0.0 | 0.0 | 0.00 | 0.00 | 0.00 | 99 | 1018.1 |
| 20260906063842 | 18 | 220 | 0.0 | 0.0 | 0.00 | 0.00 | 0.00 | 99 | 1018.3 |
| 20260906063338 | 18 | 220 | 0.0 | 0.0 | 0.00 | 0.00 | 0.00 | 99 | 1018.2 |
| 20260906062833 | 18 | 218 | 0.0 | 0.0 | 0.00 | 0.00 | 0.00 | 99 | 1018.6 |
| 20260906062332 | 18 | 218 | 0.0 | 0.0 | 0.00 | 0.00 | 0.00 | 99 | 1018.3 |
| 20260906061827 | 18 | 232 | 0.0 | 0.0 | 0.00 | 0.00 | 0.00 | 99 | 1018.2 |
| 20260906061323 | 18 | 236 | 0.0 | 0.0 | 0.00 | 0.00 | 0.00 | 99 | 1018.2 |
| 20260906060818 | 18 | 213 | 0.0 | 0.0 | 0.00 | 0.00 | 0.00 | 99 | 1018.4 |
| 20260906060316 | 18 | 227 | 0.0 | 0.0 | 0.00 | 0.00 | 0.00 | 99 | 1018.1 |
| 20260906055811 | 18 | 153 | 0.0 | 0.0 | 0.00 | 0.00 | 0.00 | 99 | 1018.2 |
| 20260906055307 | 18 | 246 | 0.0 | 0.0 | 0.00 | 0.00 | 0.00 | 99 | 1018.3 |
| 20260906054802 | 18 | 137 | 0.0 | 0.0 | 0.00 | 0.00 | 0.00 | 99 | 1018.1 |
| 20260906054257 | 18 | 224 | 0.0 | 0.0 | 0.00 | 0.00 | 0.00 | 99 | 1018.1 |
| 20260906053748 | 18 | 216 | 0.0 | 0.0 | 0.00 | 0.00 | 0.00 | 99 | 1018.1 |
| 20260906053244 | 18 | 222 | 0.0 | 0.0 | 0.00 | 0.00 | 0.00 | 99 | 1018.1 |
| 20260906052738 | 18 | 224 | 0.0 | 0.0 | 0.00 | 0.00 | 0.00 | 99 | 1018.3 |
| 20260906052235 | 18 | 285 | 0.0 | 0.0 | 0.00 | 0.00 | 0.00 | 99 | 1018.0 |
| 20260906051731 | 18 | 222 | 0.0 | 0.0 | 0.00 | 0.00 | 0.00 | 99 | 1018.1 |
| 20260906051225 | 18 | 218 | 0.0 | 0.0 | 0.00 | 0.00 | 0.00 | 99 | 1018.2 |
| 20260906050720 | 18 | 216 | 0.0 | 0.0 | 0.00 | 0.00 | 0.00 | 99 | 1018.3 |
| 20260906050215 | 18 | 213 | 0.0 | 0.0 | 0.00 | 0.00 | 0.00 | 99 | 1018.2 |
| 20260906045708 | 18 | 213 | 0.0 | 0.0 | 0.00 | 0.00 | 0.00 | 99 | 1018.2 |
| 20260906045203 | 18 | 213 | 0.0 | 0.0 | 0.00 | 0.00 | 0.00 | 99 | 1018.1 |
| 20260906044659 | 18 | 212 | 0.0 | 0.0 | 0.00 | 0.00 | 0.00 | 99 | 1018.1 |
| 20260906044154 | 18 | 212 | 0.0 | 0.0 | 0.00 | 0.00 | 0.00 | 99 | 1017.9 |
| 20260906043650 | 18 | 213 | 0.0 | 0.0 | 0.00 | 0.00 | 0.00 | 99 | 1018.1 |
| 20260906043145 | 18 | 213 | 0.0 | 0.0 | 0.00 | 0.00 | 0.00 | 99 | 1018.0 |
| 20260906042645 | 18 | 213 | 0.0 | 0.0 | 0.00 | 0.00 | 0.00 | 99 | 1018.1 |
| 20260906042145 | 18 | 212 | 0.0 | 0.0 | 0.00 | 0.00 | 0.00 | 98 | 1018.0 |
| 20260906041641 | 19 | 213 | 0.0 | 0.0 | 0.00 | 0.00 | 0.00 | 98 | 1018.0 |
| 20260906041135 | 19 | 212 | 0.0 | 0.0 | 0.00 | 0.00 | 0.00 | 98 | 1017.9 |
| 20260906040625 | 19 | 212 | 0.0 | 0.0 | 0.00 | 0.00 | 0.00 | 98 | 1017.6 |
| 20260906040121 | 19 | 212 | 0.0 | 0.0 | 0.00 | 0.00 | 0.00 | 97 | 1017.6 |
| 20260906035616 | 20 | 212 | 0.0 | 0.0 | 0.00 | 0.00 | 0.00 | 97 | 1017.4 |
| 20260906035112 | 20 | 212 | 0.0 | 0.0 | 0.00 | 0.00 | 0.00 | 97 | 1017.4 |
| 20260906034612 | 20 | 174 | 0.0 | 0.0 | 0.00 | 0.00 | 0.00 | 97 | 1017.3 |
| 20260906034106 | 20 | 211 | 0.0 | 0.0 | 0.00 | 0.00 | 0.00 | 96 | 1017.3 |
| 20260906033601 | 20 | 212 | 0.0 | 0.0 | 0.00 | 0.00 | 0.00 | 96 | 1017.3 |
| 20260906033056 | 20 | 207 | 0.0 | 0.0 | 0.00 | 0.00 | 0.00 | 96 | 1017.4 |
| 20260906032553 | 20 | 204 | 0.0 | 0.0 | 0.00 | 0.00 | 0.00 | 96 | 1017.3 |
| 20260906032048 | 20 | 190 | 0.0 | 0.0 | 0.00 | 0.00 | 0.00 | 95 | 1017.4 |
| 20260906031543 | 20 | 221 | 0.0 | 0.0 | 0.00 | 0.00 | 0.00 | 95 | 1017.5 |
| 20260906031039 | 20 | 206 | 0.0 | 0.0 | 0.00 | 0.00 | 0.00 | 94 | 1017.2 |
| 20260906030538 | 20 | 210 | 0.0 | 0.0 | 0.00 | 0.00 | 0.00 | 94 | 1017.1 |
| 20260906030038 | 20 | 173 | 0.0 | 0.0 | 0.00 | 0.00 | 0.00 | 94 | 1017.2 |
| 20260906025538 | 21 | 163 | 0.0 | 0.0 | 0.00 | 0.00 | 0.00 | 93 | 1017.4 |
| 20260906025036 | 21 | 217 | 0.0 | 0.0 | 0.00 | 0.00 | 0.00 | 93 | 1017.0 |
| 20260906024531 | 21 | 355 | 0.0 | 0.0 | 0.00 | 0.00 | 0.00 | 93 | 1017.0 |
| 20260906024025 | 21 | 203 | 0.0 | 0.0 | 0.00 | 0.00 | 0.00 | 93 | 1017.2 |
| 20260906023522 | 21 | 216 | 0.0 | 0.0 | 0.00 | 0.00 | 0.00 | 93 | 1016.9 |
| 20260906023016 | 21 | 229 | 0.0 | 0.0 | 0.00 | 0.00 | 0.00 | 92 | 1016.6 |
| 20260906022512 | 21 | 220 | 0.0 | 0.0 | 0.00 | 0.00 | 0.00 | 92 | 1016.8 |
| 20260906022007 | 21 | 156 | 0.0 | 0.0 | 0.00 | 0.00 | 0.00 | 91 | 1016.7 |
| 20260906021503 | 21 | 237 | 0.0 | 0.0 | 0.00 | 0.00 | 0.00 | 91 | 1016.6 |
| 20260906020957 | 21 | 223 | 0.0 | 0.0 | 0.00 | 0.00 | 0.00 | 91 | 1016.4 |
| 20260906020450 | 21 | 214 | 0.0 | 0.0 | 0.00 | 0.00 | 0.00 | 91 | 1016.3 |
| 20260906015949 | 22 | 192 | 0.0 | 0.0 | 0.00 | 0.00 | 0.00 | 90 | 1016.2 |
| 20260906015449 | 22 | 162 | 0.0 | 0.0 | 0.00 | 0.00 | 0.00 | 90 | 1016.1 |
| 20260906014944 | 22 | 179 | 0.0 | 0.0 | 0.00 | 0.00 | 0.00 | 90 | 1016.0 |
| 20260906014444 | 22 | 331 | 0.0 | 0.0 | 0.00 | 0.00 | 0.00 | 90 | 1016.1 |
| 20260906013940 | 22 | 170 | 0.0 | 0.0 | 0.00 | 0.00 | 0.00 | 91 | 1015.9 |
| 20260906013435 | 22 | 200 | 0.0 | 0.0 | 0.00 | 0.00 | 0.00 | 92 | 1015.9 |
| 20260906012931 | 22 | 160 | 0.0 | 0.0 | 0.00 | 0.00 | 0.00 | 92 | 1016.0 |
| 20260906012425 | 22 | 225 | 0.0 | 0.0 | 0.00 | 0.00 | 0.00 | 92 | 1015.8 |
| 20260906011925 | 22 | 216 | 0.0 | 0.0 | 0.00 | 0.00 | 0.00 | 91 | 1015.8 |
| 20260906011420 | 22 | 214 | 0.0 | 0.0 | 0.00 | 0.00 | 0.00 | 91 | 1015.9 |
| 20260906010915 | 22 | 210 | 0.0 | 0.0 | 0.00 | 0.00 | 0.00 | 90 | 1015.9 |
| 20260906010411 | 22 | 190 | 0.0 | 0.0 | 0.00 | 0.00 | 0.00 | 90 | 1016.0 |
| 20260906005906 | 22 | 303 | 0.0 | 0.0 | 0.00 | 0.00 | 0.00 | 90 | 1016.1 |
| 20260906005405 | 22 | 35 | 0.0 | 0.0 | 0.00 | 0.00 | 0.00 | 90 | 1015.9 |
| 20260906004858 | 22 | 49 | 0.0 | 0.0 | 0.00 | 0.00 | 0.00 | 89 | 1016.0 |
| 20260906004353 | 23 | 175 | 0.0 | 0.0 | 0.00 | 0.00 | 0.00 | 89 | 1016.1 |
| 20260906003849 | 23 | 46 | 0.0 | 1.6 | 0.00 | 0.00 | 0.00 | 88 | 1015.8 |
| 20260906003344 | 23 | 343 | 4.8 | 8.0 | 0.00 | 0.00 | 0.00 | 87 | 1016.1 |
| 20260906002839 | 23 | 186 | 1.6 | 3.2 | 0.00 | 0.00 | 0.00 | 87 | 1016.0 |
| 20260906002338 | 23 | 131 | 0.0 | 0.0 | 0.00 | 0.00 | 0.00 | 86 | 1016.0 |
| 20260906001834 | 23 | 162 | 0.0 | 0.0 | 0.00 | 0.00 | 0.00 | 86 | 1016.2 |
| 20260906001330 | 23 | 155 | 0.0 | 0.0 | 0.00 | 0.00 | 0.00 | 85 | 1016.1 |
| 20260906000825 | 24 | 246 | 0.0 | 0.0 | 0.00 | 0.00 | 0.00 | 85 | 1016.0 |
| 20260906000320 | 24 | 292 | 0.0 | 0.0 | 0.00 | 0.00 | 0.00 | 86 | 1016.0 |
| 20260905235819 | 24 | 56 | 0.0 | 0.0 | 0.00 | 0.00 | 0.00 | 85 | 1016.0 |
| 20260905235314 | 24 | 223 | 0.0 | 0.0 | 0.00 | 0.00 | 0.00 | 84 | 1016.1 |
| 20260905234810 | 24 | 67 | 0.0 | 0.0 | 0.00 | 0.00 | 0.00 | 84 | 1016.1 |
| 20260905234305 | 24 | 47 | 0.0 | 0.0 | 0.00 | 0.00 | 0.00 | 84 | 1016.0 |
| 20260905233759 | 24 | 275 | 0.0 | 0.0 | 0.00 | 0.00 | 0.00 | 83 | 1016.0 |
| 20260905233300 | 25 | 164 | 0.0 | 0.0 | 0.00 | 0.00 | 0.00 | 83 | 1016.3 |
| 20260905232759 | 25 | 346 | 0.0 | 0.0 | 0.00 | 0.00 | 0.00 | 83 | 1016.1 |
| 20260905232255 | 25 | 221 | 0.0 | 0.0 | 0.00 | 0.00 | 0.00 | 82 | 1016.1 |
| 20260905231750 | 25 | 260 | 1.6 | 4.8 | 0.00 | 0.00 | 0.00 | 81 | 1015.9 |
| 20260905231245 | 25 | 146 | 0.0 | 0.0 | 0.00 | 0.00 | 0.00 | 81 | 1016.0 |
| 20260905230742 | 25 | 295 | 0.0 | 1.6 | 0.00 | 0.00 | 0.00 | 79 | 1016.1 |
| 20260905230240 | 25 | 21 | 3.2 | 8.0 | 0.00 | 0.00 | 0.00 | 78 | 1016.0 |
| 20260905225739 | 25 | 21 | 1.6 | 3.2 | 0.00 | 0.00 | 0.00 | 78 | 1016.0 |
| 20260905225235 | 26 | 220 | 1.6 | 3.2 | 0.00 | 0.00 | 0.00 | 77 | 1016.0 |
| 20260905224734 | 26 | 319 | 0.0 | 0.0 | 0.00 | 0.00 | 0.00 | 77 | 1016.0 |
| 20260905224230 | 26 | 118 | 0.0 | 0.0 | 0.00 | 0.00 | 0.00 | 77 | 1016.2 |
| 20260905223726 | 26 | 187 | 0.0 | 0.0 | 0.00 | 0.00 | 0.00 | 75 | 1016.0 |
| 20260905223223 | 26 | 303 | 3.2 | 4.8 | 0.00 | 0.00 | 0.00 | 75 | 1016.0 |
| 20260905222718 | 26 | 2 | 0.0 | 0.0 | 0.00 | 0.00 | 0.00 | 74 | 1015.8 |
| 20260905222217 | 26 | 71 | 3.2 | 4.8 | 0.00 | 0.00 | 0.00 | 75 | 1016.0 |
| 20260905221713 | 26 | 349 | 0.0 | 0.0 | 0.00 | 0.00 | 0.00 | 74 | 1015.7 |
| 20260905221209 | 26 | 208 | 0.0 | 0.0 | 0.00 | 0.00 | 0.00 | 74 | 1015.4 |
| 20260905220705 | 26 | 36 | 0.0 | 0.0 | 0.00 | 0.00 | 0.00 | 75 | 1015.7 |
| 20260905220201 | 26 | 231 | 0.0 | 0.0 | 0.00 | 0.00 | 0.00 | 77 | 1015.4 |
| 20260905215700 | 25 | 248 | 0.0 | 0.0 | 0.00 | 0.00 | 0.00 | 80 | 1015.7 |
| 20260905215156 | 25 | 302 | 3.2 | 3.2 | 0.00 | 0.00 | 0.00 | 80 | 1015.7 |
| 20260905214652 | 25 | 319 | 1.6 | 4.8 | 0.00 | 0.00 | 0.00 | 78 | 1015.8 |
| 20260905214147 | 25 | 36 | 0.0 | 1.6 | 0.00 | 0.00 | 0.00 | 77 | 1015.8 |
| 20260905213642 | 26 | 351 | 9.7 | 12.9 | 0.00 | 0.00 | 0.00 | 77 | 1015.7 |
| 20260905213137 | 27 | 42 | 0.0 | 0.0 | 0.00 | 0.00 | 0.00 | 77 | 1015.8 |
| 20260905212633 | 26 | 288 | 0.0 | 0.0 | 0.00 | 0.00 | 0.00 | 76 | 1016.0 |
| 20260905212132 | 25 | 253 | 0.0 | 0.0 | 0.00 | 0.00 | 0.00 | 79 | 1015.6 |
| 20260905211627 | 25 | 80 | 0.0 | 0.0 | 0.00 | 0.00 | 0.00 | 80 | 1015.8 |
| 20260905211122 | 25 | 34 | 0.0 | 1.6 | 0.00 | 0.00 | 0.00 | 79 | 1015.7 |
| 20260905210619 | 26 | 346 | 3.2 | 4.8 | 0.00 | 0.00 | 0.00 | 79 | 1015.8 |
| 20260905210113 | 25 | 339 | 1.6 | 3.2 | 0.00 | 0.00 | 0.00 | 78 | 1015.8 |
| 20260905205613 | 25 | 2 | 0.0 | 0.0 | 0.00 | 0.00 | 0.00 | 80 | 1015.9 |
| 20260905205112 | 25 | 236 | 0.0 | 0.0 | 0.00 | 0.00 | 0.00 | 80 | 1015.8 |
| 20260905204612 | 26 | 223 | 0.0 | 0.0 | 0.00 | 0.00 | 0.00 | 79 | 1016.0 |
| 20260905204107 | 26 | 243 | 0.0 | 0.0 | 0.00 | 0.00 | 0.00 | 78 | 1015.9 |
| 20260905203602 | 26 | 10 | 1.6 | 4.8 | 0.00 | 0.00 | 0.00 | 78 | 1015.9 |
| 20260905203057 | 26 | 354 | 8.0 | 11.3 | 0.00 | 0.00 | 0.00 | 79 | 1015.7 |
| 20260905202553 | 27 | 281 | 0.0 | 1.6 | 0.00 | 0.00 | 0.00 | 78 | 1015.7 |
| 20260905202048 | 26 | 206 | 0.0 | 0.0 | 0.00 | 0.00 | 0.00 | 76 | 1015.7 |
| 20260905201543 | 25 | 354 | 0.0 | 0.0 | 0.00 | 0.00 | 0.00 | 80 | 1015.5 |
| 20260905201043 | 25 | 357 | 0.0 | 1.6 | 0.00 | 0.00 | 0.00 | 81 | 1015.7 |
| 20260905200538 | 25 | 341 | 6.4 | 8.0 | 0.00 | 0.00 | 0.00 | 79 | 1015.9 |
| 20260905200038 | 25 | 325 | 0.0 | 0.0 | 0.00 | 0.00 | 0.00 | 80 | 1015.8 |
| 20260905195537 | 25 | 356 | 3.2 | 4.8 | 0.00 | 0.00 | 0.00 | 80 | 1015.9 |
| 20260905195028 | 25 | 323 | 3.2 | 4.8 | 0.00 | 0.00 | 0.00 | 79 | 1015.8 |
| 20260905194527 | 25 | 309 | 3.2 | 8.0 | 0.00 | 0.00 | 0.00 | 81 | 1016.0 |
| 20260905194027 | 25 | 48 | 1.6 | 4.8 | 0.00 | 0.00 | 0.00 | 79 | 1016.0 |
| 20260905193522 | 25 | 51 | 6.4 | 8.0 | 0.00 | 0.00 | 0.00 | 78 | 1016.0 |
| 20260905193017 | 25 | 354 | 1.6 | 1.6 | 0.00 | 0.00 | 0.00 | 79 | 1016.1 |
| 20260905192512 | 25 | 2 | 6.4 | 11.3 | 0.00 | 0.00 | 0.00 | 79 | 1016.0 |
| 20260905192009 | 26 | 11 | 6.4 | 12.9 | 0.00 | 0.00 | 0.00 | 79 | 1016.1 |
| 20260905191507 | 25 | 307 | 0.0 | 0.0 | 0.00 | 0.00 | 0.00 | 79 | 1016.0 |
| 20260905191006 | 25 | 346 | 3.2 | 8.0 | 0.00 | 0.00 | 0.00 | 80 | 1015.9 |
| 20260905190504 | 25 | 340 | 0.0 | 0.0 | 0.00 | 0.00 | 0.00 | 82 | 1016.2 |
| 20260905190004 | 25 | 19 | 4.8 | 11.3 | 0.00 | 0.00 | 0.00 | 83 | 1016.2 |
| 20260905185458 | 25 | 29 | 0.0 | 1.6 | 0.00 | 0.00 | 0.00 | 81 | 1016.1 |
| 20260905184957 | 25 | 354 | 6.4 | 9.7 | 0.00 | 0.00 | 0.00 | 81 | 1016.2 |
| 20260905184452 | 25 | 33 | 0.0 | 0.0 | 0.00 | 0.00 | 0.00 | 81 | 1016.4 |
| 20260905183951 | 25 | 79 | 0.0 | 3.2 | 0.00 | 0.00 | 0.00 | 82 | 1016.3 |
| 20260905183451 | 25 | 350 | 3.2 | 4.8 | 0.00 | 0.00 | 0.00 | 84 | 1016.5 |
| 20260905182945 | 25 | 274 | 0.0 | 0.0 | 0.00 | 0.00 | 0.00 | 84 | 1016.3 |
| 20260905182444 | 25 | 169 | 3.2 | 4.8 | 0.00 | 0.00 | 0.00 | 83 | 1016.2 |
| 20260905181940 | 25 | 32 | 0.0 | 0.0 | 0.00 | 0.00 | 0.00 | 83 | 1016.1 |
| 20260905181435 | 25 | 68 | 0.0 | 0.0 | 0.00 | 0.00 | 0.00 | 84 | 1016.1 |
| 20260905180934 | 25 | 70 | 8.0 | 12.9 | 0.00 | 0.00 | 0.00 | 83 | 1016.2 |
| 20260905180429 | 25 | 47 | 1.6 | 3.2 | 0.00 | 0.00 | 0.00 | 82 | 1016.2 |
| 20260905175925 | 25 | 356 | 1.6 | 3.2 | 0.00 | 0.00 | 0.00 | 82 | 1016.3 |
| 20260905175423 | 25 | 311 | 0.0 | 0.0 | 0.00 | 0.00 | 0.00 | 84 | 1016.3 |
| 20260905174919 | 25 | 350 | 0.0 | 0.0 | 0.00 | 0.00 | 0.00 | 84 | 1016.4 |
| 20260905174415 | 25 | 356 | 0.0 | 0.0 | 0.00 | 0.00 | 0.00 | 85 | 1016.4 |
| 20260905173910 | 25 | 174 | 0.0 | 0.0 | 0.00 | 0.00 | 0.00 | 84 | 1016.4 |
| 20260905173406 | 25 | 25 | 0.0 | 0.0 | 0.00 | 0.00 | 0.00 | 84 | 1016.4 |
| 20260905172901 | 25 | 324 | 0.0 | 0.0 | 0.00 | 0.00 | 0.00 | 83 | 1016.4 |
| 20260905172359 | 23 | 221 | 0.0 | 0.0 | 0.00 | 0.00 | 0.00 | 87 | 1016.4 |
| 20260905171854 | 23 | 325 | 0.0 | 0.0 | 0.00 | 0.00 | 0.00 | 88 | 1016.5 |
| 20260905171351 | 23 | 38 | 0.0 | 1.6 | 0.00 | 0.00 | 0.00 | 88 | 1016.5 |
| 20260905170848 | 23 | 349 | 0.0 | 0.0 | 0.00 | 0.00 | 0.00 | 88 | 1016.6 |
| 20260905170344 | 23 | 262 | 0.0 | 0.0 | 0.00 | 0.00 | 0.00 | 89 | 1016.4 |
| 20260905165842 | 23 | 269 | 0.0 | 0.0 | 0.00 | 0.00 | 0.00 | 90 | 1016.6 |
| 20260905165332 | 23 | 294 | 0.0 | 0.0 | 0.00 | 0.00 | 0.00 | 90 | 1016.6 |
| 20260905164833 | 23 | 13 | 0.0 | 0.0 | 0.00 | 0.00 | 0.00 | 90 | 1016.7 |
| 20260905164327 | 23 | 85 | 0.0 | 0.0 | 0.00 | 0.00 | 0.00 | 90 | 1016.6 |
| 20260905163823 | 23 | 309 | 0.0 | 0.0 | 0.00 | 0.00 | 0.00 | 89 | 1016.5 |
| 20260905163319 | 23 | 338 | 0.0 | 0.0 | 0.00 | 0.00 | 0.00 | 90 | 1016.5 |
| 20260905162815 | 23 | 343 | 0.0 | 0.0 | 0.00 | 0.00 | 0.00 | 90 | 1016.8 |
| 20260905162314 | 23 | 19 | 0.0 | 0.0 | 0.00 | 0.00 | 0.00 | 90 | 1016.7 |
| 20260905161809 | 22 | 296 | 0.0 | 0.0 | 0.00 | 0.00 | 0.00 | 91 | 1016.7 |
| 20260905161308 | 22 | 257 | 0.0 | 0.0 | 0.00 | 0.00 | 0.00 | 92 | 1016.7 |
| 20260905160801 | 22 | 22 | 4.8 | 9.7 | 0.00 | 0.00 | 0.00 | 91 | 1016.4 |
| 20260905160255 | 22 | 13 | 3.2 | 3.2 | 0.00 | 0.00 | 0.00 | 91 | 1016.6 |
| 20260905155750 | 22 | 53 | 0.0 | 0.0 | 0.00 | 0.00 | 0.00 | 92 | 1016.6 |
| 20260905155249 | 22 | 39 | 4.8 | 8.0 | 0.00 | 0.00 | 0.00 | 92 | 1016.6 |
| 20260905154749 | 22 | 117 | 3.2 | 8.0 | 0.00 | 0.00 | 0.00 | 92 | 1016.5 |
| 20260905154245 | 22 | 6 | 1.6 | 3.2 | 0.00 | 0.00 | 0.00 | 93 | 1016.7 |
| 20260905153740 | 22 | 355 | 0.0 | 0.0 | 0.00 | 0.00 | 0.00 | 93 | 1016.5 |
| 20260905153236 | 22 | 338 | 4.8 | 4.8 | 0.00 | 0.00 | 0.00 | 93 | 1016.4 |
| 20260905152731 | 22 | 201 | 0.0 | 0.0 | 0.00 | 0.00 | 0.00 | 94 | 1016.3 |
| 20260905152230 | 22 | 210 | 0.0 | 0.0 | 0.00 | 0.00 | 0.00 | 94 | 1016.6 |
| 20260905151724 | 22 | 291 | 0.0 | 1.6 | 0.00 | 0.00 | 0.00 | 94 | 1016.7 |
| 20260905151220 | 22 | 311 | 3.2 | 3.2 | 0.00 | 0.00 | 0.00 | 94 | 1016.4 |
| 20260905150716 | 22 | 280 | 0.0 | 0.0 | 0.00 | 0.00 | 0.00 | 94 | 1016.2 |
| 20260905150215 | 22 | 109 | 1.6 | 3.2 | 0.00 | 0.00 | 0.00 | 94 | 1016.3 |